Helicity
335 466 596 363 239 253 240 238 161 184 141 221 136 110 136 123 113 110 70 49 31 13 5 87 91 87 130 96 101 83 60 32 1 44 22 90 132 130 85 128 117 64 71 68
477 243 377 282 291 305 127 210 140 224 37 168 128 118 110 115 131 103 88 93 68 86 106 134 123 152 124 87 60 84 62 4 -28 108 129 161 148 77 44 146 124 104 94 79
251 208 323 236 278 327 206 156 187 260 281 221 177 168 151 99 122 125 118 121 100 108 117 143 165 183 197 152 103 101 66 31 30 154 200 214 211 175 153 130 115 93 81 77
159 209 345 223 252 283 287 163 216 217 251 208 181 208 169 141 141 176 137 140 134 115 129 128 160 204 197 192 145 98 67 45 94 217 239 248 175 172 144 96 80 63 79 99
184 101 175 152 333 255 354 190 230 218 184 150 189 202 176 121 146 157 183 173 192 151 142 112 163 188 184 178 145 106 99 88 162 244 253 210 152 165 141 102 88 77 81 132
185 121 153 209 227 306 173 276 321 260 169 164 183 172 263 150 136 154 177 174 156 141 73 120 160 173 198 215 195 160 128 131 148 256 246 205 173 177 156 141 131 104 116 150
227 165 244 169 355 354 233 312 424 253 197 142 155 156 91 95 166 138 126 134 156 140 126 87 163 181 185 197 212 190 157 146 152 278 257 186 164 186 147 190 158 159 155 183
361 227 181 142 348 398 266 275 308 297 219 178 189 138 143 136 77 151 155 151 173 181 151 114 126 185 174 176 215 229 183 167 174 261 244 196 169 173 152 227 200 178 183 178
372 315 189 126 219 300 259 195 198 211 105 83 104 174 163 106 184 177 170 161 173 181 183 153 144 175 163 153 198 244 211 204 212 223 243 191 196 211 177 275 276 203 185 186
428 310 191 125 120 197 203 122 170 222 208 131 -9 70 97 124 111 162 163 159 214 175 167 189 200 217 193 174 190 206 202 218 243 227 247 237 208 230 244 313 323 283 220 227
571 353 276 150 145 160 237 191 179 172 183 189 98 76 96 48 79 113 67 83 133 184 197 187 203 207 225 215 218 221 207 212 219 259 276 262 246 244 292 320 341 333 267 255
410 260 267 91 230 187 169 199 191 241 245 253 234 193 46 120 172 191 205 162 130 164 130 153 175 186 189 191 202 230 230 222 231 283 315 302 311 313 349 348 330 356 327 335
311 248 272 196 203 249 166 135 204 230 260 207 266 281 280 245 395 492 377 281 285 246 289 299 271 233 203 170 180 195 220 219 254 269 297 317 333 361 364 339 334 375 371 427
141 228 251 195 165 215 196 196 187 226 251 211 205 178 405 392 389 435 492 433 447 488 463 434 439 338 257 238 266 218 179 197 231 246 247 288 306 352 380 357 332 366 385 483
177 245 188 254 217 111 143 186 212 232 191 262 171 230 261 264 280 352 346 352 314 385 418 443 486 485 459 374 252 203 217 214 181 180 196 191 236 258 311 328 330 306 359 492
191 146 180 194 279 160 156 207 237 219 235 184 184 163 203 66 133 210 255 314 325 337 362 356 339 375 445 397 380 336 180 146 162 162 137 150 208 229 230 286 372 450 538 638
157 217 224 116 217 206 213 283 305 289 318 338 261 253 155 173 118 69 115 207 231 224 217 274 295 286 326 373 348 281 213 134 94 133 151 127 145 211 313 402 496 524 588 617
87 87 182 322 203 200 197 263 306 244 331 400 332 297 219 239 182 -45 -43 6 38 72 116 141 164 205 226 229 219 182 165 119 100 121 119 132 155 230 327 422 503 546 570 593
159 141 92 150 256 82 182 209 237 272 249 258 266 273 277 375 162 29 -18 28 62 84 96 145 182 187 216 178 160 137 120 98 77 104 96 111 153 241 322 385 460 529 531 561
80 173 133 138 192 129 97 127 162 175 184 210 200 164 129 252 188 123 277 195 113 98 108 100 76 140 152 188 191 171 143 108 89 76 109 128 153 191 247 328 422 453 451 510
83 141 176 221 176 172 194 152 153 186 144 236 221 198 158 99 98 209 215 159 117 130 95 77 87 62 127 168 166 135 145 151 132 112 123 154 162 188 250 316 377 427 485 505
60 60 85 134 138 160 83 98 108 167 129 166 153 177 209 161 185 169 188 192 174 134 158 114 43 50 99 121 115 123 118 143 154 121 149 168 176 205 241 302 362 404 444 471
45 51 71 59 73 58 63 107 78 81 77 74 90 90 113 156 162 161 183 171 171 158 113 112 113 128 103 77 91 149 144 144 132 128 157 178 209 241 257 312 380 435 425 461
47 69 55 95 69 76 83 90 65 106 74 78 73 79 66 84 106 115 104 112 116 130 147 118 107 112 131 148 140 108 142 156 122 144 174 204 235 272 292 341 362 416 460 502
74 107 55 42 96 96 104 72 104 89 58 61 76 77 86 79 119 102 109 110 90 86 88 81 76 82 92 110 125 136 139 141 132 159 212 248 264 259 319 340 372 394 383 415
113 92 89 16 79 64 54 147 87 42 53 50 55 72 55 45 68 85 86 68 61 65 66 80 64 54 81 112 100 121 128 123 97 144 185 223 265 315 330 388 428 357 344 319
Wind_Speed
70 90 104 99 86 70 69 78 87 72 63 63 75 70 60 61 60 59 56 49 52 50 44 40 29 25 28 28 25 27 33 33 39 28 30 16 11 3 6 22 11 10 11 15
73 108 77 68 74 69 73 82 83 62 56 65 71 70 62 63 67 61 58 52 50 47 43 40 33 29 26 27 31 28 30 43 45 19 16 9 13 13 12 8 10 14 12 14
105 95 76 67 76 75 66 87 77 69 56 62 65 75 62 62 68 63 60 54 51 50 45 43 37 31 25 21 26 27 30 36 29 14 10 5 3 3 3 4 4 6 11 12
73 71 68 77 79 72 75 77 62 61 66 76 69 84 70 62 69 73 62 57 53 52 48 46 41 34 29 24 22 26 32 35 24 17 14 14 19 16 3 16 11 10 6 7
62 70 86 77 80 66 58 62 55 58 62 65 80 77 79 62 75 82 68 59 55 54 49 48 42 36 30 25 25 23 25 27 19 19 16 16 15 10 7 12 16 16 4 4
59 51 61 68 55 56 43 45 41 50 56 83 80 82 85 77 74 71 72 67 56 52 60 51 47 39 35 28 25 25 23 24 23 21 20 18 16 12 13 12 17 17 10 1
57 63 48 50 55 49 45 51 63 68 76 83 78 79 95 67 65 68 72 72 63 52 50 55 46 44 39 35 31 28 28 27 29 23 21 19 18 15 17 13 13 15 14 5
69 77 57 58 69 63 52 61 70 76 81 78 59 87 72 87 58 63 63 66 66 61 52 50 48 44 41 38 35 32 31 28 27 25 25 21 20 19 14 12 10 11 14 11
65 62 51 58 56 54 65 83 61 54 54 72 81 70 60 68 55 53 50 58 66 65 59 50 47 44 43 42 39 36 35 34 31 29 26 25 23 21 21 15 13 11 11 10
48 63 56 51 55 62 66 62 72 59 69 78 72 78 80 72 71 64 59 52 59 59 61 57 49 46 43 42 41 39 38 37 34 32 30 28 28 25 23 21 20 17 14 13
38 52 57 48 72 75 69 67 67 62 61 69 64 66 60 67 64 75 66 58 55 58 56 56 53 50 47 45 43 44 45 41 37 34 34 32 30 30 29 27 25 22 19 17
32 39 62 68 50 59 67 68 66 73 72 57 55 47 42 37 35 33 49 55 50 58 58 53 55 54 52 51 51 49 48 46 41 40 38 37 36 34 33 31 30 28 25 23
35 45 53 56 59 60 77 73 74 60 60 66 60 48 30 18 22 27 29 32 37 37 42 49 55 61 64 65 63 61 58 57 57 53 49 45 42 40 39 37 36 33 30 28
34 41 50 69 66 56 73 75 77 71 73 65 59 42 39 31 27 27 28 29 29 33 36 40 44 50 60 66 64 66 65 63 62 60 57 52 48 45 43 40 39 38 36 32
32 43 46 49 53 60 66 72 72 77 77 68 55 47 43 36 34 34 31 31 32 34 38 44 47 50 50 54 62 68 69 66 61 62 62 57 53 50 47 43 41 40 40 38
38 42 42 47 43 43 52 56 68 70 70 74 67 52 48 42 42 42 39 38 38 40 43 45 49 52 56 58 60 64 65 68 62 60 64 67 62 55 52 49 45 41 39 37
44 45 46 56 40 39 51 50 57 57 50 60 77 60 54 57 56 52 47 47 49 49 51 53 54 56 59 62 66 66 65 63 61 61 62 64 64 62 56 52 48 45 43 39
41 45 44 54 49 79 51 44 41 43 49 54 60 61 62 65 68 56 42 50 55 59 63 63 64 65 65 66 65 66 66 63 59 59 63 62 60 58 55 52 49 47 46 44
47 42 45 53 57 45 52 50 54 56 60 51 59 63 65 70 59 51 50 58 64 66 68 69 70 72 73 71 71 71 70 68 61 61 61 59 56 54 52 52 51 49 48 47
47 45 46 49 63 70 53 49 47 47 75 52 55 60 64 68 73 67 74 76 76 74 75 76 75 76 75 76 77 77 75 73 70 67 62 58 56 55 53 51 49 48 48 48
49 51 59 59 57 56 49 47 37 65 65 53 57 61 64 64 66 82 84 83 81 81 81 80 80 79 81 81 80 80 80 81 78 73 62 58 57 56 53 50 49 46 45 45
47 53 58 58 65 72 41 43 54 47 45 54 56 61 68 70 74 78 82 85 84 85 86 85 86 86 86 85 85 87 86 83 81 69 63 60 58 55 51 47 46 45 45 45
43 44 50 52 56 45 44 50 39 38 46 54 61 64 67 74 76 77 83 83 85 86 87 85 89 90 86 84 84 89 87 85 80 71 68 65 60 56 51 49 45 44 43 44
31 21 43 51 48 45 49 36 34 44 54 59 60 65 68 75 75 78 79 81 83 84 86 87 90 91 92 88 87 87 88 86 78 76 73 68 64 59 56 54 52 50 49 48
29 23 29 38 42 47 42 36 44 52 55 59 64 67 72 73 78 81 82 84 84 86 87 87 89 91 91 87 89 88 87 85 80 76 71 68 66 63 60 58 55 55 54 49
16 20 27 41 24 32 34 32 44 55 56 63 68 72 72 76 83 85 87 88 88 90 90 91 91 91 92 93 91 88 86 84 81 76 70 66 64 61 58 56 54 51 49 45
Wind_Direction
199 198 203 208 211 219 219 215 216 220 224 226 224 228 224 224 223 221 222 222 223 223 222 220 208 207 168 165 170 159 158 151 152 144 143 132 127 2 328 305 339 360 346 329
202 202 206 210 216 222 216 215 215 222 222 226 224 229 227 227 225 223 223 223 224 221 220 221 214 212 180 167 165 171 167 165 163 151 144 137 127 118 107 352 341 318 336 331
202 205 210 211 213 219 219 213 215 216 221 228 224 228 227 229 228 228 227 227 227 224 221 223 222 215 209 190 168 169 171 170 167 171 163 150 294 338 61 60 48 338 329 332
208 207 209 211 215 219 218 214 219 214 220 222 223 226 227 228 229 230 227 225 227 228 227 227 224 221 215 215 191 175 170 172 180 181 179 172 162 155 141 147 129 133 349 351
207 200 206 209 214 217 222 212 218 217 224 228 226 232 230 229 231 228 229 228 229 231 231 229 228 225 224 213 193 187 179 177 198 195 195 182 176 172 157 149 152 152 125 330
210 206 211 213 209 225 220 203 213 223 227 228 228 229 231 230 232 232 233 233 232 233 236 238 235 232 231 223 212 201 195 190 191 199 197 190 189 177 166 164 161 159 152 118
202 207 224 204 208 222 205 202 217 224 226 230 230 233 232 239 236 235 236 236 236 235 235 238 234 232 230 223 220 210 203 200 191 202 198 199 202 189 180 177 168 167 164 171
207 206 210 211 212 213 211 214 222 224 226 228 234 236 239 237 254 240 238 236 238 239 238 239 238 235 232 226 222 219 218 221 210 218 219 227 214 204 202 194 191 184 183 184
208 216 225 220 217 213 222 224 230 240 239 233 235 244 251 244 250 242 244 237 236 238 240 240 240 238 237 236 230 228 232 234 228 227 233 222 222 215 212 218 208 205 206 217
229 217 228 222 221 233 230 229 232 240 232 234 239 241 241 244 247 248 249 251 243 242 243 245 244 243 241 243 243 240 241 237 235 231 230 233 223 224 227 228 224 229 229 227
235 227 224 220 225 224 229 230 236 238 240 236 240 247 253 251 254 250 253 257 255 251 250 249 250 249 248 250 248 248 249 245 238 235 235 237 232 233 238 237 236 235 240 237
253 236 223 225 240 240 236 235 234 234 235 245 246 252 277 265 268 275 260 259 262 257 254 256 255 255 254 254 255 253 251 249 243 246 243 241 244 242 243 243 244 241 242 245
256 237 226 230 242 242 235 234 236 243 244 243 243 251 289 293 279 284 281 276 268 269 268 265 263 262 262 261 261 260 259 258 260 258 257 254 250 248 246 246 247 245 246 246
266 246 244 235 243 239 234 235 237 240 243 242 245 243 266 283 288 292 288 288 285 279 277 276 274 273 270 268 269 267 266 264 264 262 259 256 251 250 250 251 249 245 242 243
269 246 254 260 259 243 238 238 238 241 243 246 245 249 261 278 280 283 293 293 292 290 288 282 281 280 284 282 276 273 272 272 267 264 264 260 259 257 257 253 250 248 245 242
273 257 261 254 265 249 241 246 246 246 249 249 252 257 270 277 283 282 288 293 292 293 292 292 288 286 284 285 285 283 277 273 272 267 265 266 268 263 259 260 256 255 249 246
264 262 259 251 262 251 245 254 253 250 255 253 247 260 273 269 275 278 282 289 289 292 294 292 291 291 289 287 286 284 282 280 276 271 270 270 267 266 264 262 259 255 252 252
267 260 262 257 256 247 258 268 269 255 261 264 261 268 272 275 275 275 287 292 292 293 292 291 292 291 291 290 289 287 286 283 279 277 276 275 271 266 264 262 259 259 255 257
261 266 262 258 259 265 263 267 264 260 261 274 270 273 275 278 272 267 287 295 294 293 293 292 294 293 292 292 291 289 287 286 283 281 281 279 276 271 266 262 260 261 258 262
270 269 264 265 258 256 269 279 277 271 260 279 281 280 282 281 267 268 285 290 290 291 292 293 295 295 294 293 292 289 287 286 284 284 283 282 279 274 270 267 264 262 263 264
271 266 260 264 266 269 278 282 279 260 266 285 285 285 285 281 280 282 287 288 290 290 290 292 293 293 294 294 293 290 288 286 286 285 283 282 281 277 273 270 269 266 265 265
280 270 267 269 264 262 285 281 274 279 288 291 292 290 287 287 288 289 289 289 290 291 292 292 290 290 292 293 292 289 287 288 287 285 282 281 280 277 273 269 268 266 264 264
296 284 278 273 271 279 286 287 289 292 300 295 293 293 293 291 292 294 292 292 293 292 292 292 291 290 291 293 293 289 289 288 285 282 280 279 278 275 272 268 265 264 261 261
1 24 294 284 282 283 291 296 294 298 298 297 299 298 297 294 297 297 298 298 296 296 296 295 292 290 289 292 292 291 290 290 285 281 279 277 275 272 269 267 265 263 261 260
358 18 349 317 299 294 296 292 293 300 303 301 301 301 300 301 300 298 298 299 298 297 296 296 295 294 294 296 295 294 292 289 285 283 280 277 274 271 268 266 264 263 263 259
2 358 338 317 353 335 321 311 307 303 302 302 301 300 301 301 298 298 297 298 298 297 296 295 294 293 294 293 293 293 292 289 285 282 281 277 274 270 268 266 268 269 265 261